Regional Weather Roundup
Issued by NWS

Home | Current Version | Previous Version | Graphics & Text | Print | Product List | Glossary On
Versions: 1 2 3 4 5 6 7 8 9 10 11 12 13 14 15 16 17 18 19 20 21 22 23 24 25 26 27 28 29 30 31 32 33 34 35 36 37 38 39 40 41 42 43 44 45 46 47 48 49 50
000
ASUS43 KFSD 201002
RWRSD

WEATHER ROUNDUP FOR SOUTH DAKOTA
NATIONAL WEATHER SERVICE SIOUX FALLS SD
500 AM CDT SUN APR 20 2014

NOTE: "FAIR" INDICATES FEW OR NO CLOUDS BELOW 12,000 FEET WITH NO
SIGNIFICANT WEATHER AND/OR OBSTRUCTIONS TO VISIBILITY.


SDZ001>005-009-010-012>017-201100-
NORTHWEST AND NORTH CENTRAL SOUTH DAKOTA

CITY           SKY/WX    TMP DP  RH WIND       PRES   REMARKS
FAITH            N/A     38  28  67 S17       29.93F
MOBRIDGE       CLEAR     37  31  78 E8        29.96S
$$

SDZ012>016-024>037-041>051-057-063-072>074-201100-
SOUTHWEST AND SOUTH CENTRAL SOUTH DAKOTA

CITY           SKY/WX    TMP DP  RH WIND       PRES   REMARKS
RAPID CTY ARPT CLEAR     40  30  67 S7        29.92F
PIERRE         CLEAR     38  26  62 SE5       29.97S
CUSTER         CLEAR     37  28  70 CALM      29.98F
ELLSWORTH AFB  CLEAR     48  30  50 S10       29.92F
PHILIP         CLOUDY    39  29  67 CALM      29.96F
PINE RIDGE     MOCLDY    52  37  56 S6        29.96F
WINNER         FAIR      46  22  38 S5        30.01S
$$

SDZ004>011-016>023-039-040-201100-
NORTHEAST SOUTH DAKOTA

CITY           SKY/WX    TMP DP  RH WIND       PRES   REMARKS
ABERDEEN       CLEAR     34  31  88 E8        30.01S WCI  27
WATERTOWN      CLEAR     38  31  76 CALM      30.03R
$$

SDZ017-020-022-023-036>040-048>070-201100-
SOUTHEAST SOUTH DAKOTA

CITY           SKY/WX    TMP DP  RH WIND       PRES   REMARKS
SIOUX FALLS    CLOUDY    52  40  63 NE6       30.00S
HURON          PTCLDY    36  29  75 CALM      30.01R
CHAMBERLAIN      N/A     39  26  59 S5        30.01R
MITCHELL       CLEAR     37  29  72 CALM      30.01F
YANKTON        CLEAR     50  37  62 N3        29.99F
$$

ABBREVIATIONS USED IN REMARKS
   TC - TEMPERATURE IN CELSIUS
  WCI - WIND CHILL INDEX
   HX - HEAT INDEX
  VSB - VISIBILITY




USA.gov is the U.S. government's official web portal to all federal, state and local government web resources and services.